This is the latest recevied weather packets stored in our database for station/object KC7UNY-13. If no packets are shown the sender has not sent any weather packets the latest 10 day(s).
| Time | Temp. | Humidity | Pressure | Rain* | Wind** | Luminosity | Snow |
|---|---|---|---|---|---|---|---|
| 1777675023 | 32.78° C | 22% | 1009.2 hPa | 0 mm | - | 469 W/m² | - |
| 1777674720 | 31.67° C | 22% | 1009 hPa | 0 mm | - | 488 W/m² | - |
| 1777674416 | 31.67° C | 22% | 1009 hPa | 0 mm | - | 500 W/m² | - |
| 1777674114 | 31.67° C | 22% | 1009.2 hPa | 0 mm | - | 516 W/m² | - |
| 1777673810 | 31.67° C | 22% | 1009.2 hPa | 0 mm | - | 532 W/m² | - |
| 1777673507 | 31.67° C | 23% | 1009.3 hPa | 0 mm | - | 547 W/m² | - |
| 1777673205 | 31.11° C | 23% | 1009.2 hPa | 0 mm | - | 558 W/m² | - |
| 1777672902 | 31.11° C | 24% | 1009.4 hPa | 0 mm | - | 573 W/m² | - |
| 1777672599 | 31.67° C | 23% | 1009.3 hPa | 0 mm | - | 585 W/m² | - |
| 1777672294 | 31.67° C | 24% | 1009.5 hPa | 0 mm | - | 601 W/m² | - |
| 1777671989 | 31.11° C | 23% | 1009.6 hPa | 0 mm | - | 615 W/m² | - |
| 1777671684 | 31.67° C | 23% | 1009.6 hPa | 0 mm | - | 626 W/m² | - |
| 1777671382 | 32.22° C | 22% | 1009.8 hPa | 0 mm | - | 638 W/m² | - |
| 1777671078 | 31.11° C | 23% | 1009.9 hPa | 0 mm | - | 651 W/m² | - |
| 1777670775 | 31.11° C | 24% | 1009.9 hPa | 0 mm | - | 663 W/m² | - |
| 1777670471 | 31.67° C | 23% | 1010.2 hPa | 0 mm | - | 674 W/m² | - |
| 1777670168 | 31.67° C | 23% | 1010 hPa | 0 mm | - | 685 W/m² | - |
| 1777669866 | 30.56° C | 25% | 1010.1 hPa | 0 mm | - | 695 W/m² | - |
| 1777669562 | 30.56° C | 25% | 1010.4 hPa | 0 mm | - | 703 W/m² | - |
| 1777669259 | 30.56° C | 25% | 1010.3 hPa | 0 mm | - | 712 W/m² | - |
| 1777668955 | 32.22° C | 24% | 1010.6 hPa | 0 mm | - | 720 W/m² | - |
| 1777668653 | 31.67° C | 24% | 1010.4 hPa | 0 mm | - | 730 W/m² | - |
| 1777668349 | 30° C | 26% | 1010.7 hPa | 0 mm | - | 738 W/m² | - |
| 1777668045 | 31.67° C | 25% | 1010.9 hPa | 0 mm | - | 746 W/m² | - |
| 1777667742 | 31.67° C | 25% | 1010.7 hPa | 0 mm | - | 751 W/m² | - |
* Rain latest hour (hover to see other rain measurements)
** Current wind speed in m/s (hover to see current wind gust speed)